sat.trackr.live / text

‹ back to catalog

STARLINK-5032

NORAD 53895 · 2022-119K

PAYLOAD ACTIVE UNKNOWN

§ Identity

Operator
Country
US
Launch date
2022-09-24
Launch site
AFETR
Launch vehicle
Mass (kg)
RCS (m²)

Purposes: comms

External: N2YO · Heavens-Above · Gunter

§ Orbital elements

Epoch: 2026-07-11T02:57:32.088384Z

Period
88.07 min
Inclination
53.2055°
Eccentricity
0.0010295
Mean motion
16.34994375 rev/d
Perigee alt
172.4 km
Apogee alt
185.9 km
Semi-major
6,557.3 km
B*
4.3344e-4
RAAN
86.0475°
Arg perigee
260.8197°
Mean anomaly
99.1685°
Rev number
21,093

§ Raw data

STARLINK-50321 53895U 22119K   26192.12328806  .03418152  12195-4  43344-3 0  99922 53895  53.2055  86.0475 0010295 260.8197  99.1685 16.34994375210936

JSON: /api/v1/satellites/53895 · /tle

For live sub-satellite position, see the globe view (requires WebGL).

§ Visibility from observer

Set your observer location to see the next 7 days of passes ≥ 10°. The values pass through the URL so the page stays shareable.

No JS? Fill the form by hand. The geolocation button needs JavaScript.